Regional Weather Roundup
Issued by NWS Grand Forks, ND

Home | Current Version | Previous Version | Graphics & Text | Print | Product List | Glossary On
Versions: 1 2 3 4 5 6 7 8 9 10 11 12 13 14 15 16 17 18 19 20 21 22 23 24 25 26 27 28 29 30 31 32 33 34 35 36 37 38 39 40 41 42 43 44 45 46 47 48 49 50
000
ASUS43 KFGF 210510
RWRFGF
PRAIRIE TO PINES  WEATHER ROUNDUP
NATIONAL WEATHER SERVICE EASTERN NORTH DAKOTA/GRAND FORKS ND
1100 PM CST SAT DEC 20 2014

 **SATELLITE DATA USED TO AUGMENT SKY COVER AT AUTOMATED STATIONS**
 *****  WEATHER ACROSS EASTERN NORTH DAKOTA  *****

CITY           SKY/WX    TMP DP  RH WIND       PRES   REMARKS
GRAND FORKS    CLOUDY    31  29  92 S15       29.85F FOG     WCI  20
GRAND FRKS AFB CLOUDY    32  32 100 S15G22    29.84F WCI  22
GRAND FRKS NWS   N/A     30 N/A N/A S15         N/A  WCI  19
DEVILS LAKE    CLOUDY    27  19  74 S12       29.75F WCI  16
FARGO          CLOUDY    33  29  85 S17G28    29.89F WCI  22
WAHPETON ARPT  CLOUDY    32  28  86 S17       29.93R WCI  21
$$

 ***** WEATHER ACROSS CENTRAL AND WESTERN NORTH DAKOTA  *****

CITY           SKY/WX    TMP DP  RH WIND       PRES   REMARKS
BISMARCK       CLEAR     18  17  96 E3        29.79F
MINOT          PTCLDY    31  26  82 SW6       29.70F
JAMESTOWN      PTCLDY    26  23  88 S13       29.80F WCI  15
MINOT AFB      PTCLDY    31  31 100 S5        29.70F
GARRISON         N/A     26  23  88 SW3       29.73F
WILLISTON      CLEAR     23  20  88 CALM      29.72F
DICKINSON      CLEAR     28  21  75 SW6       29.73F WCI  22
HETTINGER      MOCLDY    25  21  85 CALM      29.77F
$$

 *****  OTHER AIRPORT OBSERVATIONS IN OUR AREA  *****

CITY           SKY/WX    TMP DP  RH WIND       PRES   REMARKS
WALHALLA         N/A     28  28 100 S8        29.80F FOG     WCI  20
GRAFTON AIRPOR NOT AVBL
VALLEY CITY AR CLOUDY    27  27 100 S16       29.83F FOG     WCI  14
CANDO          FOG       27  25  93 S5        29.77S VSB 1/2 WCI  21
CAVALIER APRT  CLOUDY    28  28 100 S14       29.82S FOG     WCI  17
GWINNER        CLOUDY    32  32 100 MISG      29.88F
SHEYENNE NWR     N/A     32  30  91 S10       29.95S WCI  24
ROLLA          FOG       23  23 100 MISG      29.74F VSB 1/4
 ***** THE ABOVE OBSERVATIONS ARE NON NWS ARE NOT QUALITY
       CONTROLLED AND MAY MIS-REPORT RAIN FOR SNOW...
$$

  *****  WEATHER ACROSS NORTHERN MINNESOTA  *****

CITY           SKY/WX    TMP DP  RH WIND       PRES   REMARKS
FLAG ISLAND    CLOUDY    28  28 100 S14       29.89S WCI  17
WARROAD        CLOUDY    30  27  86 S8        29.90S FOG     WCI  23
ROSEAU         CLOUDY    30  27  86 S8        29.89F HAZE    WCI  23
HALLOCK        LGT SNOW  30  28  93 CALM      29.84F
THF RVR FALLS  CLOUDY    30  28  93 S14       29.87F WCI  20
BAUDETTE       CLOUDY    30  27  88 S12G20    29.91F WCI  20
WASKISH        CLOUDY    28  28 100 CALM      29.93S
CROOKSTON      NOT AVBL
STEPHEN NDAWN    N/A     30  30 100 S13         N/A  WCI  20
GREENBUSH NDAW   N/A     28  28 100 SE1         N/A
$$
  *****  WEATHER ACROSS CENTRAL AND WEST MINNESOTA  *****

CITY           SKY/WX    TMP DP  RH WIND       PRES   REMARKS
FOSSTON        CLOUDY    28  27  93 S14       29.89S FOG     WCI  17
BEMIDJI        CLOUDY    28  28  96 S14       29.91F FOG     WCI  17
PARK RAPIDS    CLOUDY    29  27  92 S14       29.94F FOG     WCI  18
ELBOW LAKE     CLOUDY    29  28  97 S16       29.95F FOG     WCI  17
WADENA         CLOUDY    27  27 100 S13G20    29.95F FOG     WCI  16
DETROIT LAKES  CLOUDY    30  30 100 S16G23    29.91S FOG     WCI  19
MOORHEAD       CLOUDY    32  32 100 S23       29.92R FOG     WCI  19
FERGUS FALLS   CLOUDY    30  28  93 S21       29.95F FOG     WCI  17
MORRIS MN      CLOUDY    30  28  93 S17       29.95S FOG     WCI  18
STAPLES        CLOUDY    27  27 100 S10G16    29.98S WCI  17
$$
  *****  WEATHER ELSEWHERE ACROSS MINNESOTA  *****

CITY           SKY/WX    TMP DP  RH WIND       PRES   REMARKS
DULUTH         CLOUDY    30  25  81 S13       30.03F WCI  20
INTRNTL FALLS  CLOUDY    29  26  89 S7        29.95F WCI  22
ELY            CLOUDY    28  27  93 S8        30.01S WCI  20
CLOQUET        CLOUDY    30  27  86 S12G17    30.03S WCI  21
WHEATON        CLOUDY    28  27  93 SE15      29.95F FOG     WCI  17
BRAINERD       CLOUDY    27  25  92 S17       30.01S WCI  14
HIBBING        CLOUDY    29  25  85 S6        30.00F WCI  23
ALEXANDRIA     CLOUDY    29  27  92 S17       29.97F FOG     WCI  17
SAINT CLOUD    CLOUDY    31  26  82 S10       30.03F WCI  22
MINNEAPOLIS    CLOUDY    31  26  82 SE8       30.08F WCI  23
$$

  *****  WEATHER ACROSS SOUTH DAKOTA  *****

CITY           SKY/WX    TMP DP  RH WIND       PRES   REMARKS
SIOUX FALLS    FOG       30  30 100 S10       29.97F VSB 1/2 WCI  21
BROOKINGS      NOT AVBL
WATERTOWN      CLOUDY    29  27  92 S16       29.91F FOG     WCI  17
HURON          CLOUDY    30  29  96 S13       29.92F FOG     WCI  20
SISSETON         N/A     31  30  96 S10       29.91S WCI  22
ABERDEEN       CLOUDY    30  27  88 S16       29.89F WCI  19
MITCHELL       CLOUDY    32  30  92 S12       29.94F WCI  23
PIERRE         CLOUDY    23  20  88 CALM      29.84F
MOBRIDGE       CLOUDY    27  24  89 SE9       29.80F WCI  18
RAPID CITY     CLOUDY    33  26  75 CALM      29.79F
$$

  *****  SOME WEATHER IN NEARBY STATES *****

CITY           SKY/WX    TMP DP  RH WIND       PRES   REMARKS
GLASGOW MT     CLEAR     25  20  81 E10       29.65F WCI  15
GREAT FALLS MT CLOUDY    37  26  64 SW10      29.58F
CHEYENNE WY    CLOUDY    33  16  49 W8        29.91S
SCOTTSBLUFF NE CLOUDY    35  26  69 W6        29.89F
OMAHA NE       FOG       34  34 100 SE10      30.04S VSB 1
DES MOINES IA  CLOUDY    36  34  92 SE9       30.09F FOG
DAVENPORT IA   CLOUDY    33  30  88 SE8       30.19F FOG
CHICAGO IL     CLOUDY    32  26  78 S5        30.24S
EAU CLAIRE WI  CLOUDY    30  28  92 S6        30.13S FOG     WCI  24
LA CROSSE WI   CLOUDY    33  28  81 S8        30.16S
$$

  *****  SOME NATIONAL WEATHER *****

CITY           SKY/WX    TMP DP  RH WIND       PRES   REMARKS
LA GUARDIA NY  CLOUDY    32  23  69 N5        30.29F
RALEIGH NC     CLOUDY    38  34  85 CALM      30.28S FOG
ATLANTA GA     CLOUDY    48  44  86 E7        30.20S
NEW ORLEANS LA CLOUDY    53  47  79 NE12      30.16S
OKLAHOMA CITY  CLOUDY    42  37  82 S9        30.13F
ALBUQUERQUE NM CLOUDY    34  26  72 CALM      30.10R
SALT LAKE CITY CLOUDY    41  35  79 SE8       30.05F
LOS ANGELES CA CLOUDY    57  51  80 E7        30.15R
BOISE ID       LGT RAIN  41  37  86 SE13      29.90F
SEATTLE WA     CLOUDY    54  52  93 S20G29    29.49R
$$

*** WEATHER ACROSS MANITOBA...SASKATCHEWAN AND ONTARIO ***
                ***ONTARIO***

CITY           SKY/WX    TMP DP  RH WIND       PRES   REMARKS
GERALDTON      CLOUDY    25  23  93 SE3       30.10F
THUNDER BAY    CLOUDY    34  30  86 S5        30.10S
SIOUX LOOKOUT  FRZ DRZL  28  27  93 S8        29.95F WCI  20
TORONTO        NOT AVBL
BIG TROUT LK   CLOUDY    23  23 100 S8        29.98F WCI  14
PICKLE LAKE    NOT AVBL
DRYDEN         CLOUDY    28  27  93 S9        29.93S WCI  20
KENORA         CLOUDY    27  27 100 S13G18    29.89F FOG     WCI  16
$$
                *** MANITOBA***

CITY           SKY/WX    TMP DP  RH WIND       PRES   REMARKS
BRANDON        FOG       23  23 100 E3        29.74S VSB 1
DAUPHIN        FLURRIES  25  23  93 SE6       29.74F WCI  18
ISLAND LAKE    FLURRIES  23  21  93 SE8       29.86F WCI  14
PILOT MOUND      N/A     27  25  93 CALM        N/A
THE PAS        CLOUDY    19  18  93 SE7       29.74F FOG     WCI  10
THOMPSON       LGT SNOW  19  18  93 VRB2      29.80F
WINNIPEG       NOT AVBL
LYNN LAKE      CLOUDY    14  14 100 S6        29.72F WCI   5
CHURCHILL      FLURRIES  18  16  93 SW13      29.81F WCI   4
GILLAM         FRZ DRZL  19  18  93 S5        29.86F WCI  13
$$
                ***SASKATCHEWAN***

CITY           SKY/WX    TMP DP  RH WIND       PRES   REMARKS
ESTEVAN        PTCLDY    23  21  93 SW8       29.68F WCI  14
KINDERSLEY     NOT AVBL
LLOYDMINSTER   SNOW      19  18  93 E9        29.50F VSB 3/8 WCI   9
PRINCE ALBERT  NOT AVBL
REGINA         NOT AVBL
YORKTON        FOG       27  25  93 S7        29.65F VSB 1   WCI  19
N. BATTLEFORD  FOG       19  19 100 SE8       29.59F VSB 1/4 WCI   9
LA RONGE       LGT SNOW  18  16  93 E5        29.66F WCI  11
SASKATOON      FOG       21  21 100 S5        29.62F VSB 3/4 WCI  15
SWIFT CURRENT  CLEAR     25  19  80 S13       29.55F WCI  13
$$
NOTE: THESE ARE AUTOMATED STATIONS WITH LIMITED QUALITY CONTROL
      "FAIR" INDICATES FEW OR NO CLOUDS BELOW 12,000 FEET WITH NO
      SIGNIFICANT WEATHER AND/OR OBSTRUCTIONS TO VISIBILITY.
      SKY/WX - SKY CONDITION AND SIGNIFICANT WEATHER.
      TMP - AIR TEMPERATURE.    DP   - DEWPOINT TEMPERATURE.
      RH  - RELATIVE HUMIDITY.  PRES - PRESSURE.
      HX  - HEAT INDEX.         WCI  - WIND CHILL INDEX.
$


USA.gov is the U.S. government's official web portal to all federal, state and local government web resources and services.